Year,Month,Day,Hour,Minute,Value (Times are PST for temperature in C)
2008,09,03,00,00,11.30
2008,09,03,00,01,11.30
2008,09,03,00,02,11.30
2008,09,03,00,03,11.30
2008,09,03,00,04,11.30
2008,09,03,00,05,11.30
2008,09,03,00,06,11.30
2008,09,03,00,07,11.30
2008,09,03,00,08,11.30
2008,09,03,00,09,11.30
2008,09,03,00,10,11.40
2008,09,03,00,11,11.40
2008,09,03,00,12,11.40
2008,09,03,00,13,11.40
2008,09,03,00,14,11.40
2008,09,03,00,15,11.40
2008,09,03,00,16,11.40
2008,09,03,00,17,11.50
2008,09,03,00,18,11.50
2008,09,03,00,19,11.50
2008,09,03,00,20,11.50
2008,09,03,00,21,11.60
2008,09,03,00,22,11.60
2008,09,03,00,23,11.60
2008,09,03,00,24,11.60
2008,09,03,00,25,11.60
2008,09,03,00,26,11.60
2008,09,03,00,27,11.60
2008,09,03,00,28,11.50
2008,09,03,00,29,11.60
2008,09,03,00,30,11.50
2008,09,03,00,31,11.50
2008,09,03,00,32,11.60
2008,09,03,00,33,11.60
2008,09,03,00,34,11.60
2008,09,03,00,35,11.60
2008,09,03,00,36,11.60
2008,09,03,00,37,11.60
2008,09,03,00,38,11.60
2008,09,03,00,39,11.60
2008,09,03,00,40,11.60
2008,09,03,00,41,11.60
2008,09,03,00,42,11.60
2008,09,03,00,43,11.60
2008,09,03,00,44,11.60
2008,09,03,00,45,11.60
2008,09,03,00,46,11.60
2008,09,03,00,47,11.60
2008,09,03,00,48,11.60
2008,09,03,00,49,11.60
2008,09,03,00,50,11.60
2008,09,03,00,51,11.60
2008,09,03,00,52,11.70
2008,09,03,00,53,11.70
2008,09,03,00,54,11.70
2008,09,03,00,55,11.70
2008,09,03,00,56,11.70
2008,09,03,00,57,11.70
2008,09,03,00,58,11.70
2008,09,03,00,59,11.70
2008,09,03,01,00,11.70
2008,09,03,01,01,11.70
2008,09,03,01,02,11.70
2008,09,03,01,03,11.70
2008,09,03,01,04,11.70
2008,09,03,01,05,11.70
2008,09,03,01,06,11.60
2008,09,03,01,07,11.60
2008,09,03,01,08,11.60
2008,09,03,01,09,11.60
2008,09,03,01,10,11.60
2008,09,03,01,11,11.60
2008,09,03,01,12,11.60
2008,09,03,01,13,11.60
2008,09,03,01,14,11.60
2008,09,03,01,15,11.60
2008,09,03,01,16,11.60
2008,09,03,01,17,11.50
2008,09,03,01,18,11.50
2008,09,03,01,19,11.50
2008,09,03,01,20,11.50
2008,09,03,01,21,11.50
2008,09,03,01,22,11.50
2008,09,03,01,23,11.40
2008,09,03,01,24,11.40
2008,09,03,01,25,11.40
2008,09,03,01,26,11.40
2008,09,03,01,27,11.40
2008,09,03,01,28,11.40
2008,09,03,01,29,11.40
2008,09,03,01,30,11.40
2008,09,03,01,31,11.40
2008,09,03,01,32,11.40
2008,09,03,01,33,11.40
2008,09,03,01,34,11.40
2008,09,03,01,35,11.40
2008,09,03,01,36,11.30
2008,09,03,01,37,11.30
2008,09,03,01,38,11.30
2008,09,03,01,39,11.30
2008,09,03,01,40,11.30
2008,09,03,01,41,11.30
2008,09,03,01,42,11.30
2008,09,03,09,02,14.10
2008,09,03,09,03,14.10
2008,09,03,09,04,14.20
2008,09,03,09,05,14.20
2008,09,03,09,06,14.20
2008,09,03,09,07,14.20
2008,09,03,09,08,14.30
2008,09,03,09,09,14.30
2008,09,03,09,10,14.30
2008,09,03,09,11,14.30
2008,09,03,09,12,14.40
2008,09,03,09,13,14.40
2008,09,03,09,14,14.40
2008,09,03,09,15,14.50
2008,09,03,09,16,14.50
2008,09,03,09,17,14.50
2008,09,03,09,18,14.50
2008,09,03,09,19,14.50
2008,09,03,09,20,14.50
2008,09,03,09,21,14.40
2008,09,03,09,22,14.40
2008,09,03,09,23,14.40
2008,09,03,09,24,14.40
2008,09,03,09,25,14.50
2008,09,03,09,26,14.50
2008,09,03,09,27,14.50
2008,09,03,09,28,14.50
2008,09,03,09,29,14.50
2008,09,03,09,30,14.60
2008,09,03,09,31,14.60
2008,09,03,09,32,14.60
2008,09,03,09,33,14.70
2008,09,03,09,34,14.70
2008,09,03,09,35,14.70
2008,09,03,09,36,14.70
2008,09,03,09,37,14.70
2008,09,03,09,38,14.80
2008,09,03,09,39,14.80
2008,09,03,09,40,14.80
2008,09,03,09,41,14.80
2008,09,03,09,42,14.90
2008,09,03,09,43,15.00
2008,09,03,09,44,15.00
2008,09,03,09,45,15.00
2008,09,03,09,46,15.00
2008,09,03,09,47,15.00
2008,09,03,09,48,15.00
2008,09,03,09,49,15.00
2008,09,03,09,50,15.00
2008,09,03,09,51,15.00
2008,09,03,09,52,15.00
2008,09,03,09,53,15.00
2008,09,03,09,54,15.00
2008,09,03,09,55,15.00
2008,09,03,09,56,15.00
2008,09,03,09,57,15.00
2008,09,03,09,58,15.00
2008,09,03,09,59,15.00
2008,09,03,10,00,15.00
2008,09,03,10,01,15.00
2008,09,03,10,02,15.00
2008,09,03,10,03,15.00
2008,09,03,10,04,15.00
2008,09,03,10,05,15.00
2008,09,03,10,06,15.00
2008,09,03,10,07,15.00
2008,09,03,10,08,15.10
2008,09,03,10,09,15.20
2008,09,03,10,10,15.20
2008,09,03,10,11,15.30
2008,09,03,10,12,15.30
2008,09,03,10,13,15.30
2008,09,03,10,14,15.30
2008,09,03,10,15,15.30
2008,09,03,10,16,15.30
2008,09,03,10,17,15.30
2008,09,03,10,18,15.20
2008,09,03,10,19,15.30
2008,09,03,10,20,15.30
2008,09,03,10,21,15.40
2008,09,03,10,22,15.40
2008,09,03,10,23,15.40
2008,09,03,10,24,15.40
2008,09,03,10,25,15.50
2008,09,03,10,26,15.50
2008,09,03,10,27,15.50
2008,09,03,10,28,15.50
2008,09,03,10,29,15.50
2008,09,03,10,30,15.60
2008,09,03,10,31,15.70
2008,09,03,10,32,15.70
2008,09,03,10,33,15.80
2008,09,03,10,34,15.80
2008,09,03,10,35,15.90
2008,09,03,10,36,15.90
2008,09,03,10,37,16.00
2008,09,03,10,38,16.00
2008,09,03,10,39,16.10
2008,09,03,10,40,16.10
2008,09,03,10,41,16.10
2008,09,03,10,42,16.20
2008,09,03,10,43,16.20
2008,09,03,10,44,16.30
2008,09,03,10,45,16.30
2008,09,03,10,46,16.30
2008,09,03,10,47,16.30
2008,09,03,10,48,16.30
2008,09,03,10,49,16.30
2008,09,03,10,50,16.40
2008,09,03,10,51,16.40
2008,09,03,10,52,16.40
2008,09,03,10,53,16.40
2008,09,03,10,54,16.40
2008,09,03,10,55,16.40
2008,09,03,10,56,16.30
2008,09,03,10,57,16.30
2008,09,03,10,58,16.30
2008,09,03,10,59,16.30
2008,09,03,11,00,16.30
2008,09,03,11,01,16.40
2008,09,03,11,02,16.40
2008,09,03,11,03,16.30
2008,09,03,11,04,16.30
2008,09,03,11,05,16.30
2008,09,03,11,06,16.30
2008,09,03,11,07,16.30
2008,09,03,11,08,16.40
2008,09,03,11,09,16.40
2008,09,03,11,10,16.40
2008,09,03,11,11,16.40
2008,09,03,11,12,16.50
2008,09,03,11,13,16.50
2008,09,03,11,14,16.60
2008,09,03,11,15,16.70
2008,09,03,11,16,16.70
2008,09,03,11,17,16.70
2008,09,03,11,18,16.70
2008,09,03,11,19,16.60
2008,09,03,11,20,16.70
2008,09,03,11,21,16.70
2008,09,03,11,22,16.80
2008,09,03,11,23,16.90
2008,09,03,11,24,16.90
2008,09,03,11,25,17.00
2008,09,03,11,26,17.00
2008,09,03,11,27,17.10
2008,09,03,11,28,17.10
2008,09,03,11,29,17.20
2008,09,03,11,30,17.20
2008,09,03,11,31,17.20
2008,09,03,11,32,17.20
2008,09,03,11,33,17.20
2008,09,03,11,34,17.20
2008,09,03,11,35,17.10
2008,09,03,11,36,17.00
2008,09,03,11,37,16.90
2008,09,03,11,38,16.90
2008,09,03,11,39,16.80
2008,09,03,11,40,16.90
2008,09,03,11,41,17.00
2008,09,03,11,42,17.10
2008,09,03,11,43,17.20
2008,09,03,11,44,17.20
2008,09,03,11,45,17.30
2008,09,03,11,46,17.40
2008,09,03,11,47,17.50
2008,09,03,11,48,17.60
2008,09,03,11,49,17.70
2008,09,03,11,50,17.70
2008,09,03,11,51,17.70
2008,09,03,11,52,17.80
2008,09,03,11,53,17.90
2008,09,03,11,54,17.90
2008,09,03,11,55,17.90
2008,09,03,11,56,17.90
2008,09,03,11,57,18.00
2008,09,03,11,58,18.00
2008,09,03,11,59,18.00
2008,09,03,12,00,18.00
2008,09,03,12,01,18.00
2008,09,03,12,02,18.00
2008,09,03,12,03,17.90
2008,09,03,12,04,18.00
2008,09,03,12,05,18.00
2008,09,03,12,06,18.10
2008,09,03,12,07,18.20
2008,09,03,12,08,18.20
2008,09,03,12,09,18.30
2008,09,03,12,10,18.30
2008,09,03,12,11,18.40
2008,09,03,12,12,18.50
2008,09,03,12,13,18.60
2008,09,03,12,14,18.70
2008,09,03,12,15,18.70
2008,09,03,12,16,18.80
2008,09,03,12,17,18.80
2008,09,03,12,18,18.70
2008,09,03,12,19,18.70
2008,09,03,12,20,18.70
2008,09,03,12,21,18.70
2008,09,03,12,22,18.80
2008,09,03,12,23,18.90
2008,09,03,12,24,19.00
2008,09,03,12,25,19.10
2008,09,03,12,26,19.20
2008,09,03,12,27,19.20
2008,09,03,12,28,19.20
2008,09,03,12,29,19.20
2008,09,03,12,30,19.30
2008,09,03,12,31,19.20
2008,09,03,12,32,19.20
2008,09,03,12,33,19.10
2008,09,03,12,34,19.00
2008,09,03,12,35,18.80
2008,09,03,12,36,18.70
2008,09,03,12,37,18.60
2008,09,03,12,38,18.60
2008,09,03,12,39,18.60
2008,09,03,12,40,18.70
2008,09,03,12,41,18.70
2008,09,03,12,42,18.70
2008,09,03,12,43,18.80
2008,09,03,12,44,18.80
2008,09,03,12,45,18.80
2008,09,03,12,46,18.90
2008,09,03,12,47,18.90
2008,09,03,12,48,19.00
2008,09,03,12,49,19.00
2008,09,03,12,50,19.00
2008,09,03,12,51,19.00
2008,09,03,12,52,19.10
2008,09,03,12,53,19.20
2008,09,03,12,54,19.20
2008,09,03,12,55,19.30
2008,09,03,12,56,19.30
2008,09,03,12,57,19.40
2008,09,03,12,58,19.40
2008,09,03,12,59,19.40
2008,09,03,13,00,19.40
2008,09,03,13,01,19.30
2008,09,03,13,02,19.20
2008,09,03,13,03,19.00
2008,09,03,13,04,18.90
2008,09,03,13,05,18.90
2008,09,03,13,06,18.80
2008,09,03,13,07,18.80
2008,09,03,13,08,18.80
2008,09,03,13,09,18.80
2008,09,03,13,10,18.80
2008,09,03,13,11,18.80
2008,09,03,13,12,18.90
2008,09,03,13,13,19.00
2008,09,03,13,14,19.00
2008,09,03,13,15,19.10
2008,09,03,13,16,19.20
2008,09,03,13,17,19.10
2008,09,03,13,18,19.10
2008,09,03,13,19,19.10
2008,09,03,13,20,19.00
2008,09,03,13,21,18.90
2008,09,03,13,22,18.90
2008,09,03,13,23,18.80
2008,09,03,13,24,18.80
2008,09,03,13,25,18.90
2008,09,03,13,26,18.90
2008,09,03,13,27,19.00
2008,09,03,13,28,19.10
2008,09,03,13,29,19.20
2008,09,03,13,30,19.30
2008,09,03,13,31,19.20
2008,09,03,13,32,19.10
2008,09,03,13,33,19.10
2008,09,03,13,34,19.10
2008,09,03,13,35,19.10
2008,09,03,13,36,19.20
2008,09,03,13,37,19.20
2008,09,03,13,38,19.30
2008,09,03,13,39,19.40
2008,09,03,13,40,19.50
2008,09,03,13,41,19.50
2008,09,03,13,42,19.40
2008,09,03,13,43,19.30
2008,09,03,13,44,19.30
2008,09,03,13,45,19.30
2008,09,03,13,46,19.30
2008,09,03,13,47,19.40
2008,09,03,13,48,19.20
2008,09,03,13,49,19.20
2008,09,03,13,50,19.10
2008,09,03,13,51,19.20
2008,09,03,13,52,19.20
2008,09,03,13,53,19.20
2008,09,03,13,54,19.30
2008,09,03,13,55,19.30
2008,09,03,13,56,19.30
2008,09,03,13,57,19.30
2008,09,03,13,58,19.30
2008,09,03,13,59,19.30
2008,09,03,14,00,19.40
2008,09,03,14,01,19.50
2008,09,03,14,02,19.50
2008,09,03,14,03,19.50
2008,09,03,14,04,19.60
2008,09,03,14,05,19.60
2008,09,03,14,06,19.70
2008,09,03,14,07,19.70
2008,09,03,14,08,19.70
2008,09,03,14,09,19.70
2008,09,03,14,10,19.70
2008,09,03,14,11,19.60
2008,09,03,14,12,19.40
2008,09,03,14,13,19.40
2008,09,03,14,14,19.20
2008,09,03,14,15,19.20
2008,09,03,14,16,19.20
2008,09,03,14,17,19.10
2008,09,03,14,18,19.10
2008,09,03,14,19,19.10
2008,09,03,14,20,19.20
2008,09,03,14,21,19.30
2008,09,03,14,22,19.40
2008,09,03,14,23,19.40
2008,09,03,14,24,19.40
2008,09,03,14,25,19.50
2008,09,03,14,26,19.50
2008,09,03,14,27,19.50
2008,09,03,14,28,19.60
2008,09,03,14,29,19.60
2008,09,03,14,30,19.70
2008,09,03,14,31,19.70
2008,09,03,14,32,19.80
2008,09,03,14,33,19.90
2008,09,03,14,34,19.90
2008,09,03,14,35,20.00
2008,09,03,14,36,20.00
2008,09,03,14,37,20.10
2008,09,03,14,38,20.10
2008,09,03,14,39,20.10
2008,09,03,14,40,20.10
2008,09,03,14,41,20.10
2008,09,03,14,42,20.10
2008,09,03,14,43,20.10
2008,09,03,14,44,20.20
2008,09,03,14,45,20.10
2008,09,03,14,46,20.00
2008,09,03,14,47,20.00
2008,09,03,14,48,19.90
2008,09,03,14,49,19.90
2008,09,03,14,50,19.80
2008,09,03,14,51,19.80
2008,09,03,14,52,19.90
2008,09,03,14,53,20.00
2008,09,03,14,54,20.00
2008,09,03,14,55,20.10
2008,09,03,14,56,20.10
2008,09,03,14,57,20.00
2008,09,03,14,58,20.00
2008,09,03,14,59,19.90
2008,09,03,15,00,20.00
2008,09,03,15,01,20.00
2008,09,03,15,02,20.00
2008,09,03,15,03,20.10
2008,09,03,15,04,20.20
2008,09,03,15,05,20.20
2008,09,03,15,06,20.30
2008,09,03,15,07,20.30
2008,09,03,15,08,20.40
2008,09,03,15,09,20.40
2008,09,03,15,10,20.40
2008,09,03,15,11,20.30
2008,09,03,15,12,20.30
2008,09,03,15,13,20.20
2008,09,03,15,14,20.00
2008,09,03,15,15,19.90
2008,09,03,15,16,19.80
2008,09,03,15,17,19.80
2008,09,03,15,18,19.70
2008,09,03,15,19,19.50
2008,09,03,15,20,19.40
2008,09,03,15,21,19.30
2008,09,03,15,22,19.20
2008,09,03,15,23,19.20
2008,09,03,15,24,19.20
2008,09,03,15,25,19.30
2008,09,03,15,26,19.30
2008,09,03,15,27,19.30
2008,09,03,15,28,19.30
2008,09,03,15,29,19.20
2008,09,03,15,30,19.30
2008,09,03,15,31,19.30
2008,09,03,15,32,19.40
2008,09,03,15,33,19.40
2008,09,03,15,34,19.50
2008,09,03,15,35,19.60
2008,09,03,15,36,19.70
2008,09,03,15,37,19.80
2008,09,03,15,38,19.90
2008,09,03,15,39,20.00
2008,09,03,15,40,20.10
2008,09,03,15,41,20.20
2008,09,03,15,42,20.30
2008,09,03,15,43,20.50
2008,09,03,15,44,20.60
2008,09,03,15,45,20.60
2008,09,03,15,46,20.70
2008,09,03,15,47,20.70
2008,09,03,15,48,20.60
2008,09,03,15,49,20.60
2008,09,03,15,50,20.70
2008,09,03,15,51,20.70
2008,09,03,15,52,20.70
2008,09,03,15,53,20.60
2008,09,03,15,54,20.50
2008,09,03,15,55,20.40
2008,09,03,15,56,20.40
2008,09,03,15,57,20.40
2008,09,03,15,58,20.40
2008,09,03,15,59,20.40
2008,09,03,16,00,20.40
2008,09,03,16,01,20.40
2008,09,03,16,02,20.30
2008,09,03,16,03,20.20
2008,09,03,16,04,20.20
2008,09,03,16,05,20.20
2008,09,03,16,06,20.30
2008,09,03,16,07,20.20
2008,09,03,16,08,20.20
2008,09,03,16,09,20.00
2008,09,03,16,10,20.00
2008,09,03,16,11,19.90
2008,09,03,16,12,20.00
2008,09,03,16,13,20.00
2008,09,03,16,14,20.10
2008,09,03,16,15,20.10
2008,09,03,16,16,20.10
2008,09,03,16,17,20.20
2008,09,03,16,18,20.30
2008,09,03,16,19,20.40
2008,09,03,16,20,20.50
2008,09,03,16,21,20.60
2008,09,03,16,22,20.60
2008,09,03,16,23,20.60
2008,09,03,16,24,20.50
2008,09,03,16,25,20.40
2008,09,03,16,26,20.20
2008,09,03,16,27,20.00
2008,09,03,16,28,19.80
2008,09,03,16,29,19.70
2008,09,03,16,30,19.60
2008,09,03,16,31,19.60
2008,09,03,16,32,19.60
2008,09,03,16,33,19.70
2008,09,03,16,34,19.70
2008,09,03,16,35,19.70
2008,09,03,16,36,19.70
2008,09,03,16,37,19.70
2008,09,03,16,38,19.70
2008,09,03,16,39,19.80
2008,09,03,16,40,19.80
2008,09,03,16,41,19.80
2008,09,03,16,42,19.80
2008,09,03,16,43,19.70
2008,09,03,16,44,19.80
2008,09,03,16,45,19.80
2008,09,03,16,46,19.90
2008,09,03,16,47,19.90
2008,09,03,16,48,20.00
2008,09,03,16,49,20.10
2008,09,03,16,50,20.20
2008,09,03,16,51,20.30
2008,09,03,16,52,20.30
2008,09,03,16,53,20.30
2008,09,03,16,54,20.20
2008,09,03,16,55,20.00
2008,09,03,16,56,19.80
2008,09,03,16,57,19.70
2008,09,03,16,58,19.50
2008,09,03,16,59,19.50
2008,09,03,17,00,19.40
2008,09,03,17,01,19.30
2008,09,03,17,02,19.30
2008,09,03,17,03,19.30
2008,09,03,17,04,19.40
2008,09,03,17,05,19.40
2008,09,03,17,06,19.40
2008,09,03,17,07,19.40
2008,09,03,17,08,19.40
2008,09,03,17,09,19.40
2008,09,03,17,10,19.40
2008,09,03,17,11,19.40
2008,09,03,17,12,19.40
2008,09,03,17,13,19.30
2008,09,03,17,14,19.30
2008,09,03,17,15,19.20
2008,09,03,17,16,19.20
2008,09,03,17,17,19.20
2008,09,03,17,18,19.20
2008,09,03,17,19,19.20
2008,09,03,17,20,19.20
2008,09,03,17,21,19.10
2008,09,03,17,22,19.10
2008,09,03,17,23,19.10
2008,09,03,17,24,19.10
2008,09,03,17,25,19.10
2008,09,03,17,26,19.10
2008,09,03,17,27,19.10
2008,09,03,17,28,19.10
2008,09,03,17,29,19.20
2008,09,03,17,30,19.20
2008,09,03,17,31,19.20
2008,09,03,17,32,19.10
2008,09,03,17,33,19.00
2008,09,03,17,34,19.00
2008,09,03,17,35,18.90
2008,09,03,17,36,18.80
2008,09,03,17,37,18.80
2008,09,03,17,38,18.80
2008,09,03,17,39,18.90
2008,09,03,17,40,18.90
2008,09,03,17,41,18.90
2008,09,03,17,42,18.90
2008,09,03,17,43,18.90
2008,09,03,17,44,18.80
2008,09,03,17,45,18.80
2008,09,03,17,46,18.80
2008,09,03,17,47,18.80
2008,09,03,17,48,18.70
2008,09,03,17,49,18.70
2008,09,03,17,50,18.70
2008,09,03,17,51,18.70
2008,09,03,17,52,18.70
2008,09,03,17,53,18.70
2008,09,03,17,54,18.80
2008,09,03,17,55,18.70
2008,09,03,17,56,18.80
2008,09,03,17,57,18.70
2008,09,03,17,58,18.80
2008,09,03,17,59,18.80
2008,09,03,18,00,18.80
2008,09,03,18,01,18.90
2008,09,03,18,02,18.90
2008,09,03,18,03,18.90
2008,09,03,18,04,18.90
2008,09,03,18,05,18.80
2008,09,03,18,06,18.80
2008,09,03,18,07,18.80
2008,09,03,18,08,18.80
2008,09,03,18,09,18.80
2008,09,03,18,10,18.80
2008,09,03,18,11,18.70
2008,09,03,18,12,18.80
2008,09,03,18,13,18.80
2008,09,03,18,14,18.80
2008,09,03,18,15,18.80
2008,09,03,18,16,18.70
2008,09,03,18,17,18.70
2008,09,03,18,18,18.70
2008,09,03,18,19,18.60
2008,09,03,18,20,18.60
2008,09,03,18,21,18.50
2008,09,03,18,22,18.50
2008,09,03,18,23,18.50
2008,09,03,18,24,18.40
2008,09,03,18,25,18.40
2008,09,03,18,26,18.30
2008,09,03,18,27,18.20
2008,09,03,18,28,18.10
2008,09,03,18,29,18.00
2008,09,03,18,30,17.90
2008,09,03,18,31,17.80
2008,09,03,18,32,17.70
2008,09,03,18,33,17.60
2008,09,03,18,34,17.50
2008,09,03,18,35,17.40
2008,09,03,18,36,17.30
2008,09,03,18,37,17.20
2008,09,03,18,38,17.10
2008,09,03,18,39,17.10
2008,09,03,18,40,17.00
2008,09,03,18,41,16.90
2008,09,03,18,42,16.90
2008,09,03,18,43,16.80
2008,09,03,18,44,16.70
2008,09,03,18,45,16.70
2008,09,03,18,46,16.60
2008,09,03,18,47,16.60
2008,09,03,18,48,16.60
2008,09,03,18,49,16.50
2008,09,03,18,50,16.50
2008,09,03,18,51,16.50
2008,09,03,18,52,16.50
2008,09,03,18,53,16.50
2008,09,03,18,54,16.50
2008,09,03,18,55,16.40
2008,09,03,18,56,16.40
2008,09,03,18,57,16.40
2008,09,03,18,58,16.40
2008,09,03,18,59,16.30
2008,09,03,19,00,16.30
2008,09,03,19,01,16.30
2008,09,03,19,02,16.30
2008,09,03,19,03,16.30
2008,09,03,19,04,16.30
2008,09,03,19,05,16.30
2008,09,03,19,06,16.30
2008,09,03,19,07,16.30
2008,09,03,19,08,16.20
2008,09,03,19,09,16.20
2008,09,03,19,10,16.20
2008,09,03,19,11,16.20
2008,09,03,19,12,16.20
2008,09,03,19,13,16.20
2008,09,03,19,14,16.20
2008,09,03,19,15,16.20
2008,09,03,19,16,16.20
2008,09,03,19,17,16.10
2008,09,03,19,18,16.10
2008,09,03,19,19,16.10
2008,09,03,19,20,16.10
2008,09,03,19,21,16.10
2008,09,03,19,22,16.10
2008,09,03,19,23,16.10
2008,09,03,19,24,16.10
2008,09,03,19,25,16.00
2008,09,03,19,26,16.00
2008,09,03,19,27,16.00
2008,09,03,19,28,16.00
2008,09,03,19,29,15.90
2008,09,03,19,30,15.90
2008,09,03,19,31,15.80
2008,09,03,19,32,15.70
2008,09,03,19,33,15.60
2008,09,03,19,34,15.60
2008,09,03,19,35,15.50
2008,09,03,19,36,15.50
2008,09,03,19,37,15.40
2008,09,03,19,38,15.30
2008,09,03,19,39,15.20
2008,09,03,19,40,15.20
2008,09,03,19,41,15.10
2008,09,03,19,42,15.00
2008,09,03,19,43,15.00
2008,09,03,19,44,15.00
2008,09,03,19,45,15.00
2008,09,03,19,46,15.00
2008,09,03,19,47,15.00
2008,09,03,19,48,15.00
2008,09,03,19,49,15.00
2008,09,03,19,50,15.00
2008,09,03,19,51,15.00
2008,09,03,19,52,15.00
2008,09,03,19,53,15.00
2008,09,03,19,54,15.00
2008,09,03,19,55,15.00
2008,09,03,19,56,14.90
2008,09,03,19,57,14.90
2008,09,03,19,58,14.80
2008,09,03,19,59,14.80
2008,09,03,20,00,14.80
2008,09,03,20,01,14.80
2008,09,03,20,02,14.80
2008,09,03,20,03,14.80
2008,09,03,20,04,14.80
2008,09,03,20,05,14.80
2008,09,03,20,06,14.80
2008,09,03,20,07,14.80
2008,09,03,20,08,14.80
2008,09,03,20,09,14.80
2008,09,03,20,10,14.80
2008,09,03,20,11,14.80
2008,09,03,20,12,14.80
2008,09,03,20,13,14.80
2008,09,03,20,14,14.80
2008,09,03,20,15,14.80
2008,09,03,20,16,14.80
2008,09,03,20,17,14.80
2008,09,03,20,18,14.80
2008,09,03,20,19,14.80
2008,09,03,20,20,14.70
2008,09,03,20,21,14.70
2008,09,03,20,22,14.70
2008,09,03,20,23,14.70
2008,09,03,20,24,14.70
2008,09,03,20,25,14.70
2008,09,03,20,26,14.60
2008,09,03,20,27,14.60
2008,09,03,20,28,14.60
2008,09,03,20,29,14.60
2008,09,03,20,30,14.60
2008,09,03,20,31,14.60
2008,09,03,20,32,14.60
2008,09,03,20,33,14.60
2008,09,03,20,34,14.60
2008,09,03,20,35,14.60
2008,09,03,20,36,14.60
2008,09,03,20,37,14.50
2008,09,03,20,38,14.50
2008,09,03,20,39,14.50
2008,09,03,20,40,14.50
2008,09,03,20,41,14.50
2008,09,03,20,42,14.40
2008,09,03,20,43,14.40
2008,09,03,20,44,14.40
2008,09,03,20,45,14.40
2008,09,03,20,46,14.30
2008,09,03,20,47,14.30
2008,09,03,20,48,14.30
2008,09,03,20,49,14.30
2008,09,03,20,50,14.20
2008,09,03,20,51,14.20
2008,09,03,20,52,14.20
2008,09,03,20,53,14.20
2008,09,03,20,54,14.20
2008,09,03,20,55,14.10
2008,09,03,20,56,14.10
2008,09,03,20,57,14.10
2008,09,03,20,58,14.10
2008,09,03,20,59,14.00
2008,09,03,21,00,14.00
2008,09,03,21,01,13.90
2008,09,03,21,02,13.90
2008,09,03,21,03,13.90
2008,09,03,21,04,13.90
2008,09,03,21,05,13.80
2008,09,03,21,06,13.80
2008,09,03,21,07,13.70
2008,09,03,21,08,13.70
2008,09,03,21,09,13.70
2008,09,03,21,10,13.70
2008,09,03,21,11,13.60
2008,09,03,21,12,13.60
2008,09,03,21,13,13.60
2008,09,03,21,14,13.50
2008,09,03,21,15,13.50
2008,09,03,21,16,13.50
2008,09,03,21,17,13.40
2008,09,03,21,18,13.40
2008,09,03,21,19,13.40
2008,09,03,21,20,13.40
2008,09,03,21,21,13.40
2008,09,03,21,22,13.40
2008,09,03,21,23,13.40
2008,09,03,21,24,13.40
2008,09,03,21,25,13.40
2008,09,03,21,26,13.40
2008,09,03,21,27,13.40
2008,09,03,21,28,13.40
2008,09,03,21,29,13.40
2008,09,03,21,30,13.40
2008,09,03,21,31,13.40
2008,09,03,21,32,13.40
2008,09,03,21,33,13.40
2008,09,03,21,34,13.40
2008,09,03,21,35,13.40
2008,09,03,21,36,13.30
2008,09,03,21,37,13.40
2008,09,03,21,38,13.40
2008,09,03,21,39,13.40
2008,09,03,21,40,13.40
2008,09,03,21,41,13.40
2008,09,03,21,42,13.40
2008,09,03,21,43,13.40
2008,09,03,21,44,13.40
2008,09,03,21,45,13.40
2008,09,03,21,46,13.50
2008,09,03,21,47,13.50
2008,09,03,21,48,13.50
2008,09,03,21,49,13.60
2008,09,03,21,50,13.60
2008,09,03,21,51,13.60
2008,09,03,21,52,13.60
2008,09,03,21,53,13.60
2008,09,03,21,54,13.60
2008,09,03,21,55,13.60
2008,09,03,21,56,13.60
2008,09,03,21,57,13.60
2008,09,03,21,58,13.60
2008,09,03,21,59,13.60
2008,09,03,22,00,13.60
2008,09,03,22,01,13.60
2008,09,03,22,02,13.60
2008,09,03,22,03,13.60
2008,09,03,22,04,13.60
2008,09,03,22,05,13.60
2008,09,03,22,06,13.60
2008,09,03,22,07,13.60
2008,09,03,22,08,13.60
2008,09,03,22,09,13.60
2008,09,03,22,10,13.60
2008,09,03,22,11,13.60
2008,09,03,22,12,13.50
2008,09,03,22,13,13.50
2008,09,03,22,14,13.50
2008,09,03,22,15,13.50
2008,09,03,22,16,13.50
2008,09,03,22,17,13.50
2008,09,03,22,18,13.50
2008,09,03,22,19,13.50
2008,09,03,22,20,13.50
2008,09,03,22,21,13.50
2008,09,03,22,22,13.50
2008,09,03,22,23,13.40
2008,09,03,22,24,13.40
2008,09,03,22,25,13.40
2008,09,03,22,26,13.40
2008,09,03,22,27,13.40
2008,09,03,22,28,13.40
2008,09,03,22,29,13.40
2008,09,03,22,30,13.40
2008,09,03,22,31,13.40
2008,09,03,22,32,13.40
2008,09,03,22,33,13.40
2008,09,03,22,34,13.40
2008,09,03,22,35,13.40
2008,09,03,22,36,13.40
2008,09,03,22,37,13.40
2008,09,03,22,38,13.40
2008,09,03,22,39,13.40
2008,09,03,22,40,13.40
2008,09,03,22,41,13.30
2008,09,03,22,42,13.30
2008,09,03,22,43,13.30
2008,09,03,22,44,13.30
2008,09,03,22,45,13.30
2008,09,03,22,46,13.30
2008,09,03,22,47,13.30
2008,09,03,22,48,13.30
2008,09,03,22,49,13.40
2008,09,03,22,50,13.40
2008,09,03,22,51,13.40
2008,09,03,22,52,13.40
2008,09,03,22,53,13.40
2008,09,03,22,54,13.40
2008,09,03,22,55,13.40
2008,09,03,22,56,13.40
2008,09,03,22,57,13.30
2008,09,03,22,58,13.30
2008,09,03,22,59,13.30
2008,09,03,23,00,13.30
2008,09,03,23,01,13.30
2008,09,03,23,02,13.30
2008,09,03,23,03,13.30
2008,09,03,23,04,13.30
2008,09,03,23,05,13.40
2008,09,03,23,06,13.40
2008,09,03,23,07,13.40
2008,09,03,23,08,13.40
2008,09,03,23,09,13.40
2008,09,03,23,10,13.40
2008,09,03,23,11,13.40
2008,09,03,23,12,13.40
2008,09,03,23,13,13.40
2008,09,03,23,14,13.30
2008,09,03,23,15,13.30
2008,09,03,23,16,13.30
2008,09,03,23,17,13.30
2008,09,03,23,18,13.30
2008,09,03,23,19,13.30
2008,09,03,23,20,13.30
2008,09,03,23,21,13.30
2008,09,03,23,22,13.30
2008,09,03,23,23,13.30
2008,09,03,23,24,13.30
2008,09,03,23,25,13.30
2008,09,03,23,26,13.30
2008,09,03,23,27,13.30
2008,09,03,23,28,13.30
2008,09,03,23,29,13.30
2008,09,03,23,30,13.30
2008,09,03,23,31,13.30
2008,09,03,23,32,13.30
2008,09,03,23,33,13.30
2008,09,03,23,34,13.30
2008,09,03,23,35,13.30
2008,09,03,23,36,13.30
2008,09,03,23,37,13.30
2008,09,03,23,38,13.30
2008,09,03,23,39,13.30
2008,09,03,23,40,13.30
2008,09,03,23,41,13.30
2008,09,03,23,42,13.30
2008,09,03,23,43,13.30
2008,09,03,23,44,13.30
2008,09,03,23,45,13.30
2008,09,03,23,46,13.30
2008,09,03,23,47,13.30
2008,09,03,23,48,13.30
2008,09,03,23,49,13.30
2008,09,03,23,50,13.30
2008,09,03,23,51,13.30
2008,09,03,23,52,13.30
2008,09,03,23,53,13.30
2008,09,03,23,54,13.20
2008,09,03,23,55,13.20
2008,09,03,23,56,13.20
2008,09,03,23,57,13.20
2008,09,03,23,58,13.30
2008,09,03,23,59,13.30
